TimeCST,TemperatureF,Dew PointF,Humidity,Sea Level PressureIn,VisibilityMPH,Wind Direction,Wind SpeedMPH,Gust SpeedMPH,PrecipitationIn,Events,Conditions,WindDirDegrees,DateUTC
12:35 AM,32.0,26.6,80,30.31,10.0,NNE,3.5,-,N/A,,Overcast,30,2011-11-22 06:35:00
12:55 AM,32.0,26.6,80,30.31,10.0,NE,4.6,-,N/A,,Overcast,40,2011-11-22 06:55:00
1:15 AM,33.8,26.6,75,30.31,10.0,NE,4.6,-,N/A,,Overcast,40,2011-11-22 07:15:00
1:35 AM,32.0,26.6,80,30.31,10.0,NE,5.8,-,N/A,,Overcast,40,2011-11-22 07:35:00
1:55 AM,32.0,26.6,80,30.30,10.0,NE,5.8,-,N/A,,Overcast,40,2011-11-22 07:55:00
2:15 AM,32.0,26.6,80,30.29,10.0,NE,4.6,-,N/A,,Overcast,50,2011-11-22 08:15:00
2:35 AM,32.0,26.6,80,30.28,10.0,NE,5.8,-,N/A,,Overcast,50,2011-11-22 08:35:00
2:55 AM,32.0,26.6,80,30.27,10.0,NE,4.6,-,N/A,,Mostly Cloudy,40,2011-11-22 08:55:00
3:15 AM,32.0,26.6,80,30.27,10.0,NE,3.5,-,N/A,,Clear,40,2011-11-22 09:15:00
3:35 AM,30.2,26.6,86,30.27,10.0,NE,3.5,-,N/A,,Clear,40,2011-11-22 09:35:00
3:55 AM,30.2,28.4,93,30.27,10.0,ENE,3.5,-,N/A,,Mostly Cloudy,60,2011-11-22 09:55:00
4:35 AM,33.8,28.4,81,30.25,10.0,East,3.5,-,N/A,,Clear,90,2011-11-22 10:35:00
4:55 AM,33.8,28.4,81,30.24,10.0,ENE,3.5,-,N/A,,Clear,70,2011-11-22 10:55:00
5:15 AM,33.8,28.4,81,30.23,10.0,ENE,3.5,-,N/A,,Mostly Cloudy,70,2011-11-22 11:15:00
5:55 AM,33.8,28.4,81,30.22,10.0,East,4.6,-,N/A,,Mostly Cloudy,80,2011-11-22 11:55:00
6:15 AM,33.8,28.4,81,30.22,10.0,East,4.6,-,N/A,,Mostly Cloudy,100,2011-11-22 12:15:00
6:35 AM,33.8,28.4,81,30.22,10.0,ESE,3.5,-,N/A,,Mostly Cloudy,120,2011-11-22 12:35:00
6:55 AM,35.6,28.4,75,30.24,10.0,SE,3.5,-,N/A,,Overcast,130,2011-11-22 12:55:00
7:15 AM,35.6,30.2,81,30.23,10.0,East,3.5,-,N/A,,Mostly Cloudy,90,2011-11-22 13:15:00
7:35 AM,35.6,30.2,81,30.23,10.0,ESE,5.8,-,N/A,,Clear,120,2011-11-22 13:35:00
7:55 AM,35.6,30.2,81,30.22,10.0,East,3.5,-,N/A,,Mostly Cloudy,100,2011-11-22 13:55:00
8:15 AM,35.6,30.2,81,30.21,10.0,East,3.5,-,N/A,,Scattered Clouds,90,2011-11-22 14:15:00
8:35 AM,35.6,32.0,87,30.21,10.0,East,4.6,-,N/A,,Mostly Cloudy,100,2011-11-22 14:35:00
8:55 AM,37.4,33.8,87,30.19,10.0,ESE,6.9,-,N/A,,Overcast,120,2011-11-22 14:55:00
9:15 AM,37.4,33.8,87,30.19,10.0,ESE,6.9,-,N/A,,Overcast,120,2011-11-22 15:15:00
9:35 AM,37.4,33.8,87,30.18,10.0,ESE,8.1,-,N/A,,Overcast,110,2011-11-22 15:35:00
9:55 AM,37.4,33.8,87,30.18,10.0,SE,8.1,-,N/A,,Mostly Cloudy,140,2011-11-22 15:55:00
10:55 AM,39.2,33.8,81,30.14,10.0,ESE,8.1,-,N/A,,Overcast,110,2011-11-22 16:55:00
11:35 AM,39.2,32.0,75,30.13,10.0,East,9.2,-,N/A,,Mostly Cloudy,100,2011-11-22 17:35:00
11:55 AM,39.2,33.8,81,30.12,10.0,ESE,8.1,-,N/A,,Overcast,110,2011-11-22 17:55:00
12:15 PM,39.2,33.8,81,30.11,10.0,East,6.9,-,N/A,,Mostly Cloudy,80,2011-11-22 18:15:00
12:35 PM,39.2,33.8,81,30.10,10.0,ESE,5.8,-,N/A,,Mostly Cloudy,110,2011-11-22 18:35:00
1:35 PM,39.2,33.8,81,30.08,10.0,North,5.8,-,N/A,,Scattered Clouds,360,2011-11-22 19:35:00
1:55 PM,39.2,32.0,75,30.06,10.0,NE,6.9,-,N/A,,Mostly Cloudy,40,2011-11-22 19:55:00
2:15 PM,39.2,33.8,81,30.05,10.0,NE,8.1,-,N/A,,Mostly Cloudy,50,2011-11-22 20:15:00
2:35 PM,39.2,32.0,75,30.04,10.0,NE,8.1,-,N/A,,Mostly Cloudy,40,2011-11-22 20:35:00
2:55 PM,39.2,32.0,75,30.02,10.0,NE,8.1,-,N/A,,Mostly Cloudy,40,2011-11-22 20:55:00
3:35 PM,37.4,32.0,81,30.02,10.0,NE,8.1,-,N/A,,Partly Cloudy,50,2011-11-22 21:35:00
3:55 PM,37.4,32.0,81,30.02,10.0,NE,4.6,-,N/A,,Partly Cloudy,50,2011-11-22 21:55:00
4:55 PM,35.6,30.2,81,30.03,10.0,NNE,4.6,-,N/A,,Clear,30,2011-11-22 22:55:00
5:35 PM,35.6,32.0,87,30.04,10.0,NNE,5.8,-,N/A,,Overcast,30,2011-11-22 23:35:00
5:55 PM,35.6,32.0,87,30.04,10.0,NNE,6.9,-,N/A,,Overcast,30,2011-11-22 23:55:00
6:15 PM,35.6,32.0,87,30.04,10.0,NNE,5.8,-,N/A,,Overcast,30,2011-11-23 00:15:00
6:35 PM,35.6,32.0,87,30.03,10.0,NNE,5.8,-,N/A,,Overcast,20,2011-11-23 00:35:00
6:55 PM,35.6,32.0,87,30.02,10.0,NNE,4.6,-,N/A,,Scattered Clouds,30,2011-11-23 00:55:00
7:35 PM,35.6,32.0,87,30.01,10.0,NE,4.6,-,N/A,,Clear,40,2011-11-23 01:35:00
7:55 PM,33.8,30.2,87,30.02,10.0,North,6.9,-,N/A,,Clear,350,2011-11-23 01:55:00
8:15 PM,33.8,28.4,81,30.03,10.0,North,4.6,-,N/A,,Clear,350,2011-11-23 02:15:00
8:35 PM,33.8,30.2,87,30.03,10.0,North,6.9,-,N/A,,Clear,360,2011-11-23 02:35:00
8:55 PM,33.8,30.2,87,30.02,10.0,NNE,5.8,-,N/A,,Clear,30,2011-11-23 02:55:00
9:15 PM,33.8,30.2,87,30.02,10.0,North,5.8,-,N/A,,Clear,10,2011-11-23 03:15:00
10:15 PM,35.6,30.2,81,30.03,10.0,NNE,4.6,-,N/A,,Clear,20,2011-11-23 04:15:00
10:35 PM,35.6,32.0,87,30.03,10.0,North,5.8,-,N/A,,Clear,360,2011-11-23 04:35:00
10:55 PM,35.6,32.0,87,30.03,10.0,North,3.5,-,N/A,,Clear,10,2011-11-23 04:55:00
11:15 PM,33.8,30.2,87,30.03,10.0,Calm,Calm,-,N/A,,Clear,0,2011-11-23 05:15:00
11:35 PM,35.6,32.0,87,30.03,10.0,Calm,Calm,-,N/A,,Clear,0,2011-11-23 05:35:00
11:55 PM,33.8,32.0,93,30.03,9.0,North,3.5,-,N/A,,Clear,350,2011-11-23 05:55:00